TA2CD-18 Weather Reports


time (UTC)temp
C
wind
direction
speed
KPH
gust
KPH
rain 1hr
cm
rain 24hr
cm
rain mn
cm
humidity
%
barometer
mb
20260906090002 29 0 0.0 0.0 0.00 0.00 0.00 51 1011.0
20260906083002 28 0 0.0 0.0 0.00 0.00 0.00 53 1010.8
20260906080005 27 0 0.0 0.0 0.00 0.00 0.00 53 1010.8
20260906073004 26 0 0.0 0.0 0.00 0.00 0.00 54 1010.8
20260906070003 26 0 0.0 0.0 0.00 0.00 0.00 55 1010.4
20260906063003 25 0 0.0 0.0 0.00 0.00 0.00 57 1010.1
20260906060006 24 0 0.0 0.0 0.00 0.00 0.00 59 1010.1
20260906053002 22 0 0.0 0.0 0.00 0.00 0.00 62 1009.9
20260906050005 22 0 0.0 0.0 0.00 0.00 0.00 64 1009.9
20260906043002 21 0 0.0 0.0 0.00 0.00 0.00 67 1009.7
20260906040002 21 0 0.0 0.0 0.00 0.00 0.00 67 1009.4
20260906033003 21 0 0.0 0.0 0.00 0.00 0.00 68 1009.3
20260906030004 21 0 0.0 0.0 0.00 0.00 0.00 69 1009.1
20260906023003 21 0 0.0 0.0 0.00 0.00 0.00 69 1008.8
20260906020003 21 0 0.0 0.0 0.00 0.00 0.00 69 1008.9
20260906013003 21 0 0.0 0.0 0.00 0.00 0.00 68 1008.7
20260906010005 22 0 0.0 0.0 0.00 0.00 0.00 67 1008.6
20260906003002 22 0 0.0 0.0 0.00 0.00 0.00 67 1008.6
20260906000003 22 0 0.0 0.0 0.00 0.00 0.00 67 1008.6
20260905233003 22 0 0.0 0.0 0.00 0.00 0.00 66 1008.8
20260905230005 22 0 0.0 0.0 0.00 0.00 0.00 66 1008.8
20260905223004 22 0 0.0 0.0 0.00 0.00 0.00 66 1008.9
20260905220004 22 0 0.0 0.0 0.00 0.00 0.00 66 1009.1
20260905213003 23 0 0.0 0.0 0.00 0.00 0.00 65 1009.2
20260905210005 23 0 0.0 0.0 0.00 0.00 0.00 65 1009.2
20260905203004 23 0 0.0 0.0 0.00 0.00 0.00 63 1009.4
20260905200002 23 0 0.0 0.0 0.00 0.00 0.00 61 1009.5
20260905193003 23 0 0.0 0.0 0.00 0.00 0.00 59 1009.5
20260905190004 24 0 0.0 0.0 0.00 0.00 0.00 57 1009.7
20260905183003 25 0 0.0 0.0 0.00 0.00 0.00 54 1009.7
20260905180003 25 0 0.0 0.0 0.00 0.00 0.00 50 1009.5
20260905173006 26 0 0.0 0.0 0.00 0.00 0.00 44 1009.2
20260905170003 27 0 0.0 0.0 0.00 0.00 0.00 41 1009.1
20260905163004 28 0 0.0 0.0 0.00 0.00 0.00 38 1008.9
20260905160003 29 0 0.0 0.0 0.00 0.00 0.00 35 1008.8
20260905153004 30 0 0.0 0.0 0.00 0.00 0.00 33 1008.8
20260905150004 32 0 0.0 0.0 0.00 0.00 0.00 28 1008.7
20260905143004 36 0 0.0 0.0 0.00 0.00 0.00 25 1008.8
20260905140004 37 0 0.0 0.0 0.00 0.00 0.00 25 1008.8
20260905133004 38 0 0.0 0.0 0.00 0.00 0.00 23 1008.9
20260905130002 39 0 0.0 0.0 0.00 0.00 0.00 22 1009.0
20260905123003 39 0 0.0 0.0 0.00 0.00 0.00 23 1009.3
20260905120003 33 0 0.0 0.0 0.00 0.00 0.00 31 1009.5
20260905113002 32 0 0.0 0.0 0.00 0.00 0.00 33 1009.7
20260905110003 32 0 0.0 0.0 0.00 0.00 0.00 32 1010.0
20260905103004 32 0 0.0 0.0 0.00 0.00 0.00 32 1010.3
20260905100004 32 0 0.0 0.0 0.00 0.00 0.00 34 1010.4
20260905093003 30 0 0.0 0.0 0.00 0.00 0.00 36 1010.6